Voltar ao catálogo

STARLINK-36051

AtivoComunicaçõesVLEO
NORAD 66793·PAYLOAD·🇺🇸 United States

Lançado Dec 1, 2025 de Cape Canaveral Space Force Station

Loading…

Próximas Passagens (próximas 24 horas)

TLE

AtualizadoSource: CelesTrak SupGP

Época: Sep 14, 2026, 23:10 UTC

1 66793C 25278C   26257.96576389  .00018856  00000+0  68368-3 0  2578
2 66793  43.0027 125.5645 0001078 259.9038 148.0943 15.27534288    14

Acompanhe STARLINK-36051 em tempo real com AllMySat

Download on the App Store